#timestamp,LO_Frequency,Hit,StdDev 
1651266015.3,286046999.6,N
1651266035.1,286046999.5,N
1651266036.0,286046999.5,N
1651266055.8,286046996.8,N
1651266075.7,286046996.9,N
1651266095.5,286046997.4,N
1651266115.3,286046997.4,N
1651266135.2,286046997.8,N
1651266155.0,286046996.9,N
1651266155.9,286046996.9,N
1651266175.8,286046996.5,N
1651266195.6,286046999.6,N
1651266215.4,286046996.5,N
1651266235.3,286046999.4,N
1651266255.1,286046998.8,N
1651266275.9,286047001.1,N
1651266295.7,286046998.3,N
1651266315.5,286046999.6,N
1651266335.4,286046998.9,N
1651266355.2,286046997.1,N
1651266375.0,286046999.0,N
1651266375.9,286046999.0,N
1651266395.8,286046999.3,N
1651266415.6,286046999.4,N
1651266435.5,286046999.1,N
1651266455.3,286046999.6,N
1651266475.1,286046999.0,N
1651266495.9,286046999.0,N
1651266515.7,286046996.9,N
1651266535.5,286046998.9,N
1651266555.4,286046999.1,N
1651266575.2,286046998.4,N
1651266595.1,286046998.6,N
1651266596.0,286046998.6,N
1651266615.8,286046999.2,N
1651266635.6,286046999.5,N
1651266655.5,286046998.4,N
1651266675.3,286047000.9,N
1651266695.1,286047000.0,N
1651266715.9,286047000.2,N
1651266735.7,286047000.1,N
1651266755.6,286047000.1,N
1651266775.4,286047000.9,N
1651266795.2,286047001.2,N
1651266815.1,286047000.8,N
1651266816.0,286047000.8,N
1651266835.8,286046999.8,N
1651266855.7,286047001.0,N
1651266875.5,286046998.9,N
1651266895.3,286046999.5,N
1651266915.2,286046997.0,Y
1651266935.0,286046998.7,P
1651266935.9,286046998.7,P
1651266955.7,286046998.3,P
1651266975.6,286046999.0,N
1651266995.4,286046999.4,N
1651267015.3,286046998.4,Y
1651267035.1,286046999.9,P
1651267036.0,286046999.9,N
1651267055.8,286047000.4,N
1651267075.7,286047000.7,N
1651267095.5,286047000.9,N
1651267115.3,286047001.0,N
1651267135.2,286047000.0,N
1651267155.0,286047002.8,Y
1651267155.9,286047002.8,P
1651267175.8,286047002.4,N
1651267195.6,286047000.1,N
1651267215.5,286046999.7,N
1651267235.3,286047000.5,N
1651267255.1,286047000.3,N
1651267275.9,286047000.5,N
1651267295.7,286047000.5,N
1651267315.5,286047000.5,N
1651267335.4,286047000.2,N
1651267355.2,286047002.7,N
1651267375.1,286047001.3,N
1651267376.0,286047001.3,N
1651267395.8,286047002.2,N
1651267415.6,286047002.8,N
1651267435.5,286046999.8,N
1651267455.3,286047002.1,N
1651267475.2,286047002.7,N
1651267495.9,286047000.1,N
1651267515.7,286047002.7,N
1651267535.6,286047001.5,N
1651267555.4,286047002.3,N
1651267575.2,286047002.5,N
1651267595.1,286047001.6,N
1651267596.0,286047001.6,N
1651267615.8,286047001.9,N
1651267635.7,286047001.6,N
1651267655.5,286047002.3,N
1651267675.3,286047001.9,N
1651267695.2,286047002.0,N
1651267715.0,286047004.4,Y
1651267715.9,286047004.4,P
1651267735.8,286047002.8,N
1651267755.6,286047002.5,N
1651267775.4,286047002.1,N
1651267795.3,286047004.0,Y
1651267815.1,286046998.2,P
1651267835.8,286047000.7,N
1651267855.7,286046998.5,N
1651267875.5,286047001.1,N
1651267895.4,286046998.1,N
1651267915.2,286046998.9,N
1651267935.0,286046998.6,N
1651267935.9,286046998.6,N
1651267955.8,286047001.0,N
1651267975.6,286047000.0,N
1651267995.5,286047000.6,N
1651268015.3,286047000.8,N
1651268035.1,286046998.1,N
1651268055.9,286047000.2,N
1651268075.7,286047000.5,N
1651268095.5,286047000.0,N
1651268115.4,286047001.2,N
1651268135.2,286047000.8,N
1651268155.1,286046998.2,N
1651268156.0,286046998.2,N
1651268175.8,286046999.0,N
1651268195.6,286046998.9,N
1651268215.5,286046996.5,N
1651268235.3,286046996.8,N
1651268255.2,286046999.0,N
1651268275.9,286046996.9,N
1651268295.7,286046996.7,N
1651268315.6,286046996.5,N
1651268335.4,286046999.4,N
1651268355.3,286046997.3,N
1651268375.1,286046997.5,N
1651268376.0,286046997.5,N
1651268395.8,286046995.4,Y
1651268415.7,286046999.0,P
1651268435.5,286046999.1,P
1651268455.3,286046999.2,P
1651268475.2,286046999.5,Y
1651268495.0,286046998.5,P
1651268495.9,286046998.5,P
1651268515.8,286047000.4,N
1651268535.6,286047000.4,N
1651268555.4,286047000.5,N
1651268575.3,286046998.6,N
1651268595.1,286047000.4,N
1651268615.9,286047002.8,Y
1651268635.7,286047000.4,P
1651268655.6,286047000.5,N
1651268675.4,286047001.0,N
1651268695.2,286047002.5,Y
1651268715.1,286046999.9,P
1651268716.0,286046999.9,N
1651268735.8,286047001.0,P
1651268755.7,286047001.0,N
1651268775.5,286047000.6,N
1651268795.3,286046999.9,N
1651268815.2,286046999.7,N
1651268835.0,286047001.6,Y
1651268835.9,286047001.6,P
1651268855.8,286047001.8,N
1651268875.6,286047001.9,N
1651268895.4,286047002.2,Y
1651268915.3,286047002.7,P
1651268935.1,286047002.8,P
1651268955.9,286047002.5,P
1651268975.7,286047001.0,N
1651268995.5,286047000.3,N
1651269015.4,286047000.7,N
1651269035.2,286047000.1,N
1651269055.0,286047000.5,N
1651269056.0,286047000.5,N
1651269075.8,286047001.1,N
1651269095.6,286046998.6,N
1651269115.5,286047000.8,N
1651269135.3,286046998.8,N
1651269155.1,286046999.3,N
1651269175.9,286046999.9,N
1651269195.7,286047000.9,N
1651269215.6,286046998.1,N
1651269235.4,286046998.6,N
1651269255.2,286046999.0,N
1651269275.1,286046998.5,N
1651269276.0,286046998.5,N
1651269295.8,286046999.6,N
1651269315.7,286046998.2,N
1651269335.5,286047000.7,N
1651269355.3,286046998.5,N
1651269375.2,286047001.1,N
1651269395.0,286046998.5,N
1651269395.9,286046998.5,N
1651269415.8,286046998.1,N
1651269435.6,286046998.4,N
1651269455.4,286046998.6,N
1651269475.3,286047001.1,N
1651269495.1,286046999.8,N
1651269515.8,286047000.6,N
1651269535.7,286047000.0,N
1651269555.5,286047000.0,N
1651269575.4,286047000.5,N
1651269595.2,286046999.9,N
